TimeEDT,TemperatureF,Dew PointF,Humidity,Sea Level PressureIn,VisibilityMPH,Wind Direction,Wind SpeedMPH,Gust SpeedMPH,PrecipitationIn,Events,Conditions,WindDirDegrees,DateUTC
12:51 AM,46.0,45.0,96,29.77,-9999.0,East,12.7,26.5,0.03,,Unknown,90,2013-10-16 04:51:00
1:51 AM,46.9,44.1,90,29.75,-9999.0,East,18.4,26.5,N/A,,Unknown,80,2013-10-16 05:51:00
2:51 AM,46.9,44.1,90,29.75,-9999.0,ENE,19.6,27.6,N/A,,Unknown,70,2013-10-16 06:51:00
3:51 AM,46.9,44.1,90,29.75,-9999.0,ENE,20.7,26.5,N/A,,Unknown,70,2013-10-16 07:51:00
4:51 AM,46.0,43.0,89,29.75,-9999.0,ENE,18.4,-,N/A,,Unknown,60,2013-10-16 08:51:00
5:51 AM,46.9,43.0,86,29.75,-9999.0,ENE,18.4,25.3,N/A,,Unknown,70,2013-10-16 09:51:00
6:51 AM,-9999,-9999,N/A,29.79,-9999.0,NE,15.0,24.2,N/A,,Unknown,40,2013-10-16 10:51:00
7:51 AM,-9999,-9999,N/A,29.75,-9999.0,NE,15.0,24.2,N/A,,Unknown,40,2013-10-16 11:51:00
8:51 AM,-9999,-9999,N/A,29.77,-9999.0,NE,17.3,25.3,N/A,,Unknown,40,2013-10-16 12:51:00
9:51 AM,-9999,-9999,N/A,29.77,-9999.0,NE,17.3,25.3,N/A,,Unknown,40,2013-10-16 13:51:00
10:51 AM,-9999,-9999,N/A,29.78,-9999.0,NE,16.1,27.6,N/A,,Unknown,40,2013-10-16 14:51:00
11:51 AM,-9999,-9999,N/A,29.78,-9999.0,NNE,16.1,23.0,N/A,,Unknown,30,2013-10-16 15:51:00
12:51 PM,-9999,-9999,N/A,29.80,-9999.0,NNE,16.1,-,N/A,,Unknown,30,2013-10-16 16:51:00
1:51 PM,-9999,-9999,N/A,29.80,-9999.0,NNE,17.3,-,N/A,,Unknown,30,2013-10-16 17:51:00
2:51 PM,-9999,-9999,N/A,29.80,-9999.0,NNE,12.7,-,N/A,,Unknown,20,2013-10-16 18:51:00
3:51 PM,-9999,-9999,N/A,29.80,-9999.0,NNE,12.7,-,N/A,,Unknown,30,2013-10-16 19:51:00
4:51 PM,-9999,-9999,N/A,29.80,-9999.0,North,12.7,-,N/A,,Unknown,10,2013-10-16 20:51:00
5:51 PM,-9999,-9999,N/A,29.81,-9999.0,North,12.7,-,N/A,,Unknown,350,2013-10-16 21:51:00
6:51 PM,-9999,-9999,N/A,29.82,-9999.0,NNW,8.1,-,N/A,,Unknown,340,2013-10-16 22:51:00
7:51 PM,-9999,-9999,N/A,29.84,-9999.0,WSW,5.8,-,N/A,,Unknown,250,2013-10-16 23:51:00
8:51 PM,-9999,-9999,N/A,29.84,-9999.0,WSW,5.8,-,N/A,,Unknown,250,2013-10-17 00:51:00
9:51 PM,-9999,-9999,N/A,29.84,-9999.0,WSW,5.8,-,N/A,,Unknown,250,2013-10-17 01:51:00
10:51 PM,-9999,-9999,N/A,29.84,-9999.0,WSW,4.6,-,N/A,,Unknown,250,2013-10-17 02:51:00
11:51 PM,-9999,-9999,N/A,29.83,-9999.0,WSW,6.9,-,N/A,,Unknown,240,2013-10-17 03:51:00